TimeMST,TemperatureF,Dew PointF,Humidity,Sea Level PressureIn,VisibilityMPH,Wind Direction,Wind SpeedMPH,Gust SpeedMPH,PrecipitationIn,Events,Conditions,WindDirDegrees,DateUTC
12:53 AM,-4.0,-8.0,83,30.06,10.0,NW,5.8,-,N/A,,Clear,310,2012-12-28 07:53:00
1:53 AM,1.9,-2.0,83,30.03,10.0,NNW,4.6,-,N/A,,Clear,340,2012-12-28 08:53:00
2:53 AM,7.0,1.9,80,30.02,10.0,NNW,5.8,-,N/A,,Clear,330,2012-12-28 09:53:00
3:53 AM,6.1,1.9,83,30.03,10.0,WNW,3.5,-,N/A,,Clear,300,2012-12-28 10:53:00
4:53 AM,3.9,1.0,88,30.04,10.0,Calm,Calm,-,N/A,,Clear,0,2012-12-28 11:53:00
5:53 AM,3.9,-0.0,84,30.06,10.0,Calm,Calm,-,N/A,,Clear,0,2012-12-28 12:53:00
6:53 AM,7.0,3.0,84,30.08,10.0,West,4.6,-,N/A,,Clear,270,2012-12-28 13:53:00
7:53 AM,10.0,6.1,84,30.07,10.0,WNW,4.6,-,N/A,,Clear,290,2012-12-28 14:53:00
8:53 AM,15.1,7.0,70,30.07,10.0,WNW,4.6,-,N/A,,Clear,300,2012-12-28 15:53:00
9:53 AM,19.9,8.1,60,30.08,10.0,NW,5.8,-,N/A,,Mostly Cloudy,320,2012-12-28 16:53:00
10:53 AM,24.1,6.1,46,30.06,10.0,Calm,Calm,-,N/A,,Scattered Clouds,0,2012-12-28 17:53:00
11:53 AM,25.0,9.0,51,30.03,10.0,WNW,8.1,17.3,N/A,,Mostly Cloudy,290,2012-12-28 18:53:00
12:53 PM,26.1,10.9,53,30.04,10.0,West,12.7,24.2,N/A,,Mostly Cloudy,280,2012-12-28 19:53:00
1:53 PM,25.0,12.0,58,30.02,10.0,NW,6.9,24.2,N/A,,Partly Cloudy,310,2012-12-28 20:53:00
2:53 PM,23.0,12.9,65,30.04,10.0,West,13.8,21.9,N/A,,Overcast,280,2012-12-28 21:53:00
3:53 PM,23.0,10.9,60,30.06,10.0,NNW,6.9,-,0.00,,Overcast,340,2012-12-28 22:53:00
4:53 PM,21.0,9.0,60,30.09,10.0,Calm,Calm,-,N/A,,Overcast,0,2012-12-28 23:53:00
5:53 PM,19.0,9.0,65,30.12,10.0,West,8.1,-,N/A,,Overcast,280,2012-12-29 00:53:00
6:53 PM,14.0,8.1,77,30.14,10.0,West,6.9,-,N/A,,Mostly Cloudy,270,2012-12-29 01:53:00
7:53 PM,14.0,9.0,80,30.13,10.0,West,5.8,-,N/A,,Clear,260,2012-12-29 02:53:00
8:53 PM,10.9,7.0,84,30.14,10.0,SW,4.6,-,N/A,,Clear,230,2012-12-29 03:53:00
9:53 PM,12.9,8.1,81,30.12,10.0,WSW,5.8,-,N/A,,Clear,240,2012-12-29 04:53:00
10:53 PM,10.0,6.1,84,30.12,10.0,Calm,Calm,-,N/A,,Clear,0,2012-12-29 05:53:00
11:53 PM,12.0,7.0,80,30.11,10.0,WSW,3.5,-,N/A,,Clear,240,2012-12-29 06:53:00